SWR92 LSZH-SBGR

Flight info

Callsign SWR92
Flight time N/A
Altitude 31000
Route VEBIT T50 ROTOS Z669 MILPA N869 NINTU DCT PIMAK DCT TITVA DCT GAI/N0493F330 DCT PERDU DCT KONKE Z245 CJN N10 SVL N857 KORNO UN857 TERTO N857 DEREV/N0492F340 N857 GUNET UN857 TEKSO/N0493F360 UN857 AKNUT/N0485F380 UN857 MOLSU UN401 SIDUR UZ10 EDMUS
Aircraft B77W/H-SDE1E2E3FGHIJ2J3J4J5M1RWXY/LB1D1

Departure

Time 2026-02-18 22:15
Airport Zürich Airport (LSZH)

Arrival

Time N/A
Airport São Paulo/Guarulhos–Governor André Franco Montoro International Airport (SBGR)
Time Latitude Longitude Altitude Speed Heading
2026-02-18 21:11 47.46030 8.55832 1409 ft 0 kts
2026-02-18 22:02 47.46020 8.55830 1417 ft 3 kts
2026-02-18 22:03 47.46000 8.55827 1408 ft 3 kts
2026-02-18 22:03 47.45983 8.55825 1410 ft 2 kts
2026-02-18 22:03 47.45966 8.55820 1415 ft 3 kts 22°
2026-02-18 22:03 47.45952 8.55810 1418 ft 3 kts 49°
2026-02-18 22:04 47.45945 8.55795 1418 ft 3 kts 82°
2026-02-18 22:04 47.45945 8.55768 1414 ft 3 kts 98°
2026-02-18 22:04 47.45948 8.55739 1411 ft 2 kts 97°
2026-02-18 22:04 47.45949 8.55726 1410 ft 1 kts 96°
2026-02-18 22:05 47.45949 8.55725 1408 ft 1 kts 96°
2026-02-18 22:09 47.45949 8.55726 1414 ft 1 kts 96°
2026-02-18 22:09 47.45942 8.55821 1409 ft 16 kts 96°
2026-02-18 22:10 47.45931 8.55981 1417 ft 16 kts 95°
2026-02-18 22:10 47.45925 8.56070 1415 ft 1 kts 97°
2026-02-18 22:10 47.45924 8.56084 1415 ft 1 kts 97°
2026-02-18 22:10 47.45922 8.56099 1417 ft 1 kts 97°
2026-02-18 22:11 47.45921 8.56114 1417 ft 1 kts 97°
2026-02-18 22:11 47.45920 8.56129 1420 ft 1 kts 97°
2026-02-18 22:11 47.45918 8.56148 1418 ft 4 kts 97°
2026-02-18 22:11 47.45916 8.56250 1417 ft 12 kts 75°
2026-02-18 22:12 47.45975 8.56313 1420 ft 8 kts 14°
2026-02-18 22:12 47.46042 8.56331 1421 ft 12 kts
2026-02-18 22:12 47.46120 8.56364 1421 ft 9 kts 32°
2026-02-18 22:12 47.46175 8.56376 1421 ft 9 kts 337°
2026-02-18 22:13 47.46201 8.56347 1417 ft 0 kts 318°
2026-02-18 22:14 47.46270 8.56255 1418 ft 39 kts 318°
2026-02-18 22:14 47.46679 8.55698 1409 ft 120 kts 317°
2026-02-18 22:14 47.47482 8.54606 1407 ft 190 kts 318°
2026-02-18 22:14 47.48556 8.53230 1846 ft 207 kts 321°
2026-02-18 22:15 47.49727 8.51927 2671 ft 215 kts 327°
2026-02-18 22:15 47.51027 8.50654 3230 ft 234 kts 325°
2026-02-18 22:15 47.52208 8.48980 3998 ft 234 kts 299°
2026-02-18 22:15 47.52669 8.46686 4632 ft 240 kts 266°
2026-02-18 22:16 47.52504 8.44228 5043 ft 241 kts 264°
2026-02-18 22:16 47.52416 8.41761 5108 ft 237 kts 263°
2026-02-18 22:16 47.51852 8.39523 5459 ft 242 kts 229°
2026-02-18 22:16 47.50396 8.38175 5777 ft 256 kts 193°
2026-02-18 22:17 47.46822 8.37241 6864 ft 264 kts 198°
2026-02-18 22:17 47.45043 8.36573 7663 ft 263 kts 196°
2026-02-18 22:17 47.43249 8.35984 8441 ft 264 kts 197°
2026-02-18 22:18 47.41456 8.35402 9148 ft 265 kts 197°
2026-02-18 22:18 47.39732 8.34633 9730 ft 260 kts 215°
2026-02-18 22:18 47.38379 8.32854 10076 ft 268 kts 236°
2026-02-18 22:18 47.37423 8.30379 10253 ft 289 kts 243°
2026-02-18 22:19 47.36469 8.27646 10425 ft 310 kts 243°
2026-02-18 22:19 47.35442 8.24730 10654 ft 330 kts 243°
2026-02-18 22:19 47.34367 8.21678 11170 ft 340 kts 243°
2026-02-18 22:19 47.33257 8.18549 11828 ft 347 kts 243°
2026-02-18 22:20 47.32130 8.15386 12569 ft 351 kts 243°
2026-02-18 22:20 47.30992 8.12182 13338 ft 355 kts 244°
2026-02-18 22:20 47.29848 8.08937 14029 ft 359 kts 244°
2026-02-18 22:20 47.28688 8.05656 14737 ft 362 kts 244°
2026-02-18 22:21 47.26412 7.98962 16080 ft 368 kts 249°
2026-02-18 22:21 47.25449 7.95505 16754 ft 372 kts 249°
2026-02-18 22:21 47.24456 7.91920 17435 ft 376 kts 249°
2026-02-18 22:22 47.23472 7.88387 18073 ft 379 kts 249°
2026-02-18 22:22 47.22508 7.84943 18642 ft 383 kts 249°
2026-02-18 22:22 47.21488 7.81315 19259 ft 385 kts 250°
2026-02-18 22:22 47.20459 7.77666 19873 ft 387 kts 250°
2026-02-18 22:23 47.19312 7.74065 20462 ft 391 kts 244°
2026-02-18 22:23 47.17910 7.70611 21036 ft 396 kts 240°
2026-02-18 22:23 47.16268 7.67320 21586 ft 402 kts 236°
2026-02-18 22:23 47.14517 7.64107 22156 ft 405 kts 236°
2026-02-18 22:24 47.12748 7.60874 22708 ft 408 kts 236°
2026-02-18 22:24 47.10968 7.57617 23257 ft 411 kts 236°
2026-02-18 22:24 47.09178 7.54327 23688 ft 414 kts 236°
2026-02-18 22:24 47.07380 7.51016 24154 ft 415 kts 236°
2026-02-18 22:25 47.03763 7.44357 25040 ft 419 kts 236°
2026-02-18 22:25 47.01943 7.41015 25458 ft 421 kts 236°
2026-02-18 22:25 47.00103 7.37661 25898 ft 423 kts 236°
2026-02-18 22:26 46.98253 7.34300 26329 ft 425 kts 236°
2026-02-18 22:26 46.96394 7.30925 26736 ft 427 kts 236°
2026-02-18 22:26 46.94524 7.27528 27137 ft 429 kts 236°
2026-02-18 22:26 46.92654 7.24121 27532 ft 431 kts 236°
2026-02-18 22:27 46.90774 7.20696 27924 ft 432 kts 236°
2026-02-18 22:27 46.88893 7.17270 28293 ft 434 kts 236°
2026-02-18 22:27 46.86994 7.13817 28623 ft 436 kts 236°
2026-02-18 22:27 46.85088 7.10355 28969 ft 437 kts 236°
2026-02-18 22:28 46.83183 7.06900 29304 ft 439 kts 236°
2026-02-18 22:28 46.81261 7.03420 29605 ft 440 kts 236°
2026-02-18 22:28 46.79329 6.99927 29876 ft 441 kts 236°
2026-02-18 22:28 46.77406 6.96457 30206 ft 440 kts 236°
2026-02-18 22:29 46.73586 6.89576 30674 ft 435 kts 236°
2026-02-18 22:29 46.69776 6.82715 30687 ft 435 kts 236°
2026-02-18 22:30 46.66032 6.75884 30688 ft 432 kts 239°
2026-02-18 22:30 46.62890 6.68445 30705 ft 429 kts 244°
2026-02-18 22:31 46.59921 6.60955 30695 ft 430 kts 244°
2026-02-18 22:31 46.56904 6.53433 30698 ft 431 kts 244°
2026-02-18 22:32 46.53875 6.45911 30688 ft 431 kts 244°
2026-02-18 22:32 46.50842 6.38396 30690 ft 431 kts 244°
2026-02-18 22:33 46.46287 6.27147 30682 ft 430 kts 244°
2026-02-18 22:34 46.43256 6.19681 30695 ft 429 kts 244°
2026-02-18 22:34 46.40239 6.12275 30686 ft 429 kts 244°
2026-02-18 22:35 46.37184 6.04792 30688 ft 429 kts 244°
2026-02-18 22:35 46.34164 5.97415 30694 ft 429 kts 244°
2026-02-18 22:36 46.31113 5.89977 30684 ft 430 kts 243°
2026-02-18 22:36 46.27826 5.82725 30684 ft 433 kts 240°